EDT,Max TemperatureF,Mean TemperatureF,Min TemperatureF,Max Dew PointF,MeanDew PointF,Min DewpointF,Max Humidity, Mean Humidity, Min Humidity, Max Sea Level PressureIn, Mean Sea Level PressureIn, Min Sea Level PressureIn, Max VisibilityMiles, Mean VisibilityMiles, Min VisibilityMiles, Max Wind SpeedMPH, Mean Wind SpeedMPH, Max Gust SpeedMPH,PrecipitationIn, CloudCover, Events, WindDirDegrees
2013-10-1,90,82,73,72,71,67,93,75,47,30.04,29.99,29.95,10,10,10,16,7,25,0.00,1,,83
2013-10-2,89,82,74,74,71,69,93,77,52,30.05,30.01,29.95,10,10,10,16,8,23,0.00,3,,81
2013-10-3,89,82,74,75,73,71,100,86,59,30.06,30.01,29.96,10,7,0,21,5,24,1.15,4,Fog-Rain-Thunderstorm,100
2013-10-4,89,82,74,74,71,67,100,76,53,30.07,30.03,29.99,10,10,7,12,5,26,0.00,0,,84
2013-10-5,89,81,72,71,69,63,93,72,43,30.05,30.00,29.93,10,10,10,10,5,14,0.00,1,,82
2013-10-6,87,80,72,73,71,69,100,77,55,29.98,29.93,29.88,10,10,10,13,4,16,0.00,1,,186
2013-10-7,87,81,75,76,74,72,94,82,69,29.89,29.85,29.81,10,10,5,30,9,38,0.01,3,Rain,230
2013-10-8,86,80,74,73,70,67,88,74,57,29.95,29.90,29.85,10,10,10,16,6,24,0.00,1,,259
2013-10-9,85,79,72,73,70,69,93,78,61,30.02,29.97,29.93,10,10,10,14,8,17,0.00,4,,27
2013-10-10,88,79,69,70,68,65,90,74,46,30.05,30.00,29.95,10,10,8,12,7,16,0.00,1,,55
2013-10-11,88,78,67,69,64,58,97,67,36,30.04,29.99,29.94,10,10,10,10,4,20,0.00,0,,62
2013-10-12,88,78,68,68,66,63,90,69,48,30.05,30.01,29.97,10,10,10,14,5,16,0.00,2,,348
2013-10-13,87,78,69,69,64,60,97,65,44,30.07,30.02,29.97,10,10,8,13,5,16,0.00,3,,51
2013-10-14,88,78,68,67,64,60,90,67,40,30.03,29.98,29.92,10,10,8,14,6,23,0.00,1,,47
2013-10-15,88,79,69,69,66,61,97,70,40,29.99,29.94,29.88,10,10,9,13,6,16,0.00,1,,24
2013-10-16,88,79,69,72,69,63,100,81,43,29.97,29.94,29.89,10,8,0,14,5,21,0.00,2,Fog,11
2013-10-17,88,79,70,71,68,65,100,73,48,29.99,29.94,29.89,10,9,6,10,3,13,0.00,2,,278
2013-10-18,90,81,72,73,70,65,93,74,46,30.00,29.94,29.90,10,10,8,10,3,13,0.00,2,,132
2013-10-19,89,81,73,76,73,71,93,78,59,29.97,29.93,29.88,10,10,10,12,5,17,0.00,4,,174
2013-10-20,89,82,75,76,73,68,100,78,55,29.96,29.92,29.88,10,9,4,12,4,16,0.00,2,,288
2013-10-21,89,81,73,74,72,71,100,77,59,30.01,29.96,29.92,10,10,7,14,4,17,0.00,1,,290
2013-10-22,88,81,74,76,74,70,100,82,55,29.97,29.91,29.84,10,8,2,17,6,21,0.02,3,Rain,197
2013-10-23,84,77,70,74,68,53,94,76,49,30.00,29.90,29.83,10,9,1,17,7,23,0.16,4,Rain,352
2013-10-24,76,71,65,61,56,50,81,63,53,30.14,30.07,29.99,10,10,10,17,11,22,0.00,1,,39
2013-10-25,81,72,62,61,59,57,84,68,48,30.21,30.16,30.13,10,10,10,18,8,23,0.00,0,,39
2013-10-26,84,73,61,62,58,49,90,66,33,30.19,30.13,30.08,10,10,9,13,7,15,0.00,0,,34
2013-10-27,83,72,60,61,57,54,90,64,37,30.12,30.08,30.04,10,10,10,14,7,17,0.00,0,,50
2013-10-28,85,74,62,64,61,58,93,69,40,30.17,30.12,30.08,10,10,9,14,6,22,0.00,0,,67
2013-10-29,87,76,64,65,64,62,93,70,48,30.21,30.15,30.09,10,10,10,17,8,24,0.00,1,,62
2013-10-30,87,77,67,66,64,60,93,71,42,30.21,30.14,30.07,10,10,8,17,8,24,0.00,1,,72
2013-10-31,89,78,67,71,66,61,93,74,40,30.12,30.06,29.99,10,10,10,15,6,24,0.00,1,,110